2014-12-03 00:01:26 r, 18.34m,0000000004Hz,0000118832c,0000000.258s, 002.2C,00002191
2014-12-03 00:11:25 r, 18.39m,0000000004Hz,0000124803c,0000000.271s, 001.9C,00002191
2014-12-03 00:21:26 r, 18.30m,0000000004Hz,0000114283c,0000000.248s, 001.6C,00002191
2014-12-03 00:31:23 r, 18.37m,0000000003Hz,0000122785c,0000000.266s, 001.2C,00002191
2014-12-03 00:41:24 r, 17.55m,0000000008Hz,0000057443c,0000000.125s, 001.6C,00002191
2014-12-03 00:51:24 r, 17.30m,0000000010Hz,0000045723c,0000000.099s, 001.9C,00002191
2014-12-03 01:01:24 r, 17.23m,0000000010Hz,0000042760c,0000000.093s, 002.5C,00002191
2014-12-03 01:11:23 r, 17.26m,0000000010Hz,0000044073c,0000000.096s, 002.9C,00002191
2014-12-03 01:21:24 r, 17.30m,0000000010Hz,0000045456c,0000000.099s, 003.2C,00002191
2014-12-03 01:31:23 r, 17.61m,0000000007Hz,0000060421c,0000000.131s, 003.2C,00002191
2014-12-03 01:41:26 r, 17.51m,0000000009Hz,0000055605c,0000000.121s, 003.2C,00002191
2014-12-03 01:51:23 r, 17.47m,0000000008Hz,0000053475c,0000000.116s, 003.2C,00002191
2014-12-03 02:01:25 r, 17.51m,0000000008Hz,0000055267c,0000000.120s, 003.2C,00002191
2014-12-03 02:11:23 r, 17.61m,0000000008Hz,0000060682c,0000000.132s, 003.2C,00002191
2014-12-03 02:21:24 r, 17.72m,0000000007Hz,0000067114c,0000000.146s, 002.9C,00002191
2014-12-03 02:31:23 r, 18.48m,0000000003Hz,0000135295c,0000000.294s, 002.9C,00002191
2014-12-03 02:41:24 r, 18.98m,0000000002Hz,0000213094c,0000000.462s, 002.5C,00002191
2014-12-03 02:51:23 r, 18.64m,0000000003Hz,0000157599c,0000000.342s, 002.2C,00002191
2014-12-03 03:01:24 r, 18.55m,0000000003Hz,0000144772c,0000000.314s, 001.9C,00002191
2014-12-03 03:11:24 r, 19.08m,0000000002Hz,0000234209c,0000000.508s, 001.6C,00002191
2014-12-03 03:21:23 r, 19.05m,0000000002Hz,0000228408c,0000000.496s, 001.2C,00002191
2014-12-03 03:31:24 r, 18.68m,0000000003Hz,0000162921c,0000000.354s, 001.2C,00002191
2014-12-03 03:41:23 r, 19.45m,0000000002Hz,0000328288c,0000000.712s, 000.9C,00002191
2014-12-03 03:51:24 r, 19.58m,0000000002Hz,0000369403c,0000000.802s, 000.6C,00002191
2014-12-03 04:01:23 r, 19.70m,0000000001Hz,0000413855c,0000000.898s, 000.3C,00002191
2014-12-03 04:11:26 r, 19.83m,0000000001Hz,0000464457c,0000001.008s,-000.4C,00002191
2014-12-03 04:21:24 r, 19.96m,0000000000Hz,0000526832c,0000001.143s,-000.4C,00002191
2014-12-03 04:31:25 r, 20.09m,0000000000Hz,0000592373c,0000001.286s,-000.4C,00002191
2014-12-03 04:41:29 r, 20.19m,0000000001Hz,0000647931c,0000001.406s,-000.7C,00002191
2014-12-03 04:51:23 r, 20.24m,0000000001Hz,0000681296c,0000001.479s,-000.7C,00002191
2014-12-03 05:01:26 r, 20.26m,0000000001Hz,0000694489c,0000001.507s,-001.0C,00002191
2014-12-03 05:11:24 r, 20.26m,0000000001Hz,0000692269c,0000001.502s,-001.3C,00002191
2014-12-03 05:21:25 r, 20.26m,0000000000Hz,0000689710c,0000001.497s,-001.7C,00002191
2014-12-03 05:31:25 r, 20.25m,0000000001Hz,0000686606c,0000001.490s,-002.0C,00002191
2014-12-03 05:41:25 r, 20.25m,0000000001Hz,0000684678c,0000001.486s,-002.3C,00002191
2014-12-03 05:51:23 r, 20.25m,0000000001Hz,0000684499c,0000001.485s,-002.3C,00002191
2014-12-03 06:01:24 r, 20.26m,0000000000Hz,0000691436c,0000001.501s,-002.6C,00002191
2014-12-03 06:11:23 r, 20.26m,0000000001Hz,0000689252c,0000001.496s,-003.0C,00002191
2014-12-03 06:21:24 r, 20.24m,0000000001Hz,0000672849c,0000001.460s,-003.3C,00002191
2014-12-03 06:31:26 r, 20.14m,0000000001Hz,0000621012c,0000001.348s,-003.6C,00002191
2014-12-03 06:41:25 r, 19.81m,0000000001Hz,0000457692c,0000000.993s,-003.9C,00002191
2014-12-03 06:51:23 r, 19.03m,0000000002Hz,0000222559c,0000000.483s,-004.2C,00002191
2014-12-03 07:01:25 r, 17.80m,0000000006Hz,0000072702c,0000000.158s,-004.6C,00002191
2014-12-03 07:11:23 r, 16.34m,0000000024Hz,0000018938c,0000000.041s,-005.2C,00002191
2014-12-03 07:21:23 r, 14.61m,0000000120Hz,0000003810c,0000000.008s,-005.5C,00002191
2014-12-03 07:31:23 r, 12.66m,0000000726Hz,0000000000c,0000000.000s,-005.5C,00002191
2014-12-03 07:41:24 r, 10.74m,0000004308Hz,0000000000c,0000000.000s,-005.5C,00002191
2014-12-03 07:51:23 r, 09.11m,0000019226Hz,0000000000c,0000000.000s,-005.5C,00002191
2014-12-03 08:01:24 r, 07.91m,0000058257Hz,0000000000c,0000000.000s,-005.2C,00002191
2014-12-03 08:11:24 r, 07.04m,0000128905Hz,0000000000c,0000000.000s,-004.9C,00002191
2014-12-03 08:21:23 r, 06.43m,0000226158Hz,0000000000c,0000000.000s,-004.9C,00002191
2014-12-03 08:31:23 r, 05.98m,0000342764Hz,0000000000c,0000000.000s,-004.6C,00002191
2014-12-03 08:41:25 r, 00.00m,0000475086Hz,0000000000c,0000000.000s,-003.6C,00002191
2014-12-03 08:51:23 r, 00.00m,0000600391Hz,0000000000c,0000000.000s,-002.6C,00002191
2014-12-03 09:01:26 r, 00.00m,0000597334Hz,0000000000c,0000000.000s,-001.7C,00002191
2014-12-03 09:11:25 r, 00.00m,0000597172Hz,0000000000c,0000000.000s,-000.4C,00002191
2014-12-03 09:21:23 r, 00.00m,0000597116Hz,0000000000c,0000000.000s, 000.6C,00002191
2014-12-03 09:31:23 r, 00.00m,0000597132Hz,0000000000c,0000000.000s, 000.9C,00002191
2014-12-03 09:41:24 r, 00.00m,0000597101Hz,0000000000c,0000000.000s, 001.2C,00002191
2014-12-03 09:51:23 r, 00.00m,0000597093Hz,0000000000c,0000000.000s, 001.9C,00002191
2014-12-03 10:01:24 r, 00.00m,0000597112Hz,0000000000c,0000000.000s, 002.2C,00002191
2014-12-03 10:11:23 r, 00.00m,0000596990Hz,0000000000c,0000000.000s, 003.2C,00002191
2014-12-03 10:21:25 r, 00.00m,0000596807Hz,0000000000c,0000000.000s, 004.5C,00002191
2014-12-03 10:31:24 r, 00.00m,0000596842Hz,0000000000c,0000000.000s, 005.8C,00002191
2014-12-03 10:41:23 r, 00.00m,0000596753Hz,0000000000c,0000000.000s, 006.4C,00002191
2014-12-03 10:51:23 r, 00.00m,0000596688Hz,0000000000c,0000000.000s, 006.7C,00002191
2014-12-03 11:01:26 r, 00.00m,0000596715Hz,0000000000c,0000000.000s, 007.0C,00002191
2014-12-03 11:11:23 r, 00.00m,0000596653Hz,0000000000c,0000000.000s, 007.4C,00002191
2014-12-03 11:21:24 r, 00.00m,0000596589Hz,0000000000c,0000000.000s, 008.0C,00002191
2014-12-03 11:31:23 r, 00.00m,0000596688Hz,0000000000c,0000000.000s, 006.7C,00002191
2014-12-03 11:41:24 r, 00.00m,0000596655Hz,0000000000c,0000000.000s, 005.8C,00002191
2014-12-03 11:51:24 r, 00.00m,0000596698Hz,0000000000c,0000000.000s, 005.1C,00002191
2014-12-03 12:01:24 r, 00.00m,0000596733Hz,0000000000c,0000000.000s, 005.4C,00002191
2014-12-03 12:11:23 r, 00.00m,0000596863Hz,0000000000c,0000000.000s, 005.4C,00002191
2014-12-03 12:21:25 r, 00.00m,0000596908Hz,0000000000c,0000000.000s, 004.8C,00002191
2014-12-03 12:31:23 r, 00.00m,0000596942Hz,0000000000c,0000000.000s, 004.1C,00002191
2014-12-03 12:41:25 r, 00.00m,0000596829Hz,0000000000c,0000000.000s, 003.8C,00002191
2014-12-03 12:51:24 r, 00.00m,0000596930Hz,0000000000c,0000000.000s, 003.5C,00002191
2014-12-03 13:01:23 r, 00.00m,0000596892Hz,0000000000c,0000000.000s, 003.8C,00002191
2014-12-03 13:11:25 r, 00.00m,0000596764Hz,0000000000c,0000000.000s, 004.1C,00002191
2014-12-03 13:21:23 r, 00.00m,0000596926Hz,0000000000c,0000000.000s, 003.8C,00002191
2014-12-03 13:31:25 r, 00.00m,0000596838Hz,0000000000c,0000000.000s, 004.1C,00002191
2014-12-03 13:41:23 r, 00.00m,0000596893Hz,0000000000c,0000000.000s, 004.1C,00002191
2014-12-03 13:51:24 r, 00.00m,0000596779Hz,0000000000c,0000000.000s, 004.1C,00002191
2014-12-03 14:01:23 r, 00.00m,0000596848Hz,0000000000c,0000000.000s, 003.5C,00002191
2014-12-03 14:11:24 r, 00.00m,0000597059Hz,0000000000c,0000000.000s, 002.9C,00002191
2014-12-03 14:21:23 r, 00.00m,0000596955Hz,0000000000c,0000000.000s, 002.2C,00002191
2014-12-03 14:31:24 r, 00.00m,0000596913Hz,0000000000c,0000000.000s, 001.9C,00002191
2014-12-03 14:41:23 r, 00.00m,0000597178Hz,0000000000c,0000000.000s, 001.6C,00002191
2014-12-03 14:51:25 r, 00.00m,0000596983Hz,0000000000c,0000000.000s, 001.6C,00002191
2014-12-03 15:01:23 r, 00.00m,0000597088Hz,0000000000c,0000000.000s, 001.2C,00002191
2014-12-03 15:11:25 r, 00.00m,0000597161Hz,0000000000c,0000000.000s, 000.9C,00002191
2014-12-03 15:21:23 r, 00.00m,0000597085Hz,0000000000c,0000000.000s, 000.6C,00002191
2014-12-03 15:31:26 r, 00.00m,0000597117Hz,0000000000c,0000000.000s, 000.9C,00002191
2014-12-03 15:41:25 r, 00.00m,0000578572Hz,0000000000c,0000000.000s, 001.6C,00002191
2014-12-03 15:51:24 r, 00.00m,0000439887Hz,0000000000c,0000000.000s, 001.6C,00002191
2014-12-03 16:01:24 r, 06.03m,0000328091Hz,0000000000c,0000000.000s, 001.2C,00002191
2014-12-03 16:11:24 r, 06.39m,0000235026Hz,0000000000c,0000000.000s, 000.1C,00002191
2014-12-03 16:21:23 r, 06.88m,0000149854Hz,0000000000c,0000000.000s,-000.7C,00002191
2014-12-03 16:31:25 r, 07.62m,0000076109Hz,0000000000c,0000000.000s,-001.7C,00002191
2014-12-03 16:41:26 r, 08.77m,0000026272Hz,0000000000c,0000000.000s,-002.3C,00002191
2014-12-03 16:51:28 r, 10.30m,0000006426Hz,0000000000c,0000000.000s,-003.0C,00002191
2014-12-03 17:01:23 r, 12.12m,0000001201Hz,0000000000c,0000000.000s,-003.3C,00002191
2014-12-03 17:11:25 r, 14.06m,0000000201Hz,0000000000c,0000000.000s,-003.6C,00002191
2014-12-03 17:21:23 r, 15.82m,0000000040Hz,0000011643c,0000000.025s,-003.6C,00002191
2014-12-03 17:31:24 r, 17.11m,0000000012Hz,0000038364c,0000000.083s,-003.9C,00002191
2014-12-03 17:41:23 r, 17.85m,0000000006Hz,0000075783c,0000000.164s,-003.9C,00002191
2014-12-03 17:51:24 r, 18.06m,0000000005Hz,0000091552c,0000000.199s,-004.2C,00002191
2014-12-03 18:01:23 r, 18.08m,0000000005Hz,0000093231c,0000000.202s,-004.2C,00002191
2014-12-03 18:11:25 r, 18.03m,0000000005Hz,0000089238c,0000000.194s,-004.6C,00002191
2014-12-03 18:21:23 r, 17.97m,0000000005Hz,0000084497c,0000000.183s,-004.9C,00002191
2014-12-03 18:31:26 r, 17.85m,0000000006Hz,0000076140c,0000000.165s,-005.2C,00002191
2014-12-03 18:41:23 r, 17.56m,0000000008Hz,0000058100c,0000000.126s,-005.2C,00002191
2014-12-03 18:51:23 r, 17.17m,0000000011Hz,0000040668c,0000000.088s,-005.2C,00002191
2014-12-03 19:01:24 r, 16.75m,0000000017Hz,0000027523c,0000000.060s,-004.9C,00002191
2014-12-03 19:11:23 r, 16.73m,0000000017Hz,0000027066c,0000000.059s,-004.6C,00002191
2014-12-03 19:21:25 r, 16.72m,0000000017Hz,0000026655c,0000000.058s,-003.9C,00002191
2014-12-03 19:31:23 r, 16.62m,0000000019Hz,0000024435c,0000000.053s,-003.3C,00002191
2014-12-03 19:41:25 r, 16.57m,0000000020Hz,0000023398c,0000000.051s,-003.0C,00002191
2014-12-03 19:51:24 r, 16.52m,0000000021Hz,0000022278c,0000000.048s,-002.3C,00002191
2014-12-03 20:01:23 r, 16.47m,0000000022Hz,0000021342c,0000000.046s,-001.7C,00002191
2014-12-03 20:11:24 r, 16.39m,0000000024Hz,0000019803c,0000000.043s,-001.3C,00002191
2014-12-03 20:21:24 r, 16.37m,0000000024Hz,0000019382c,0000000.042s,-001.3C,00002191
2014-12-03 20:31:25 r, 16.31m,0000000025Hz,0000018405c,0000000.040s,-001.0C,00002191
2014-12-03 20:41:27 r, 16.32m,0000000025Hz,0000018465c,0000000.040s,-000.7C,00002191
2014-12-03 20:51:25 r, 16.42m,0000000023Hz,0000020389c,0000000.044s,-000.7C,00002191
2014-12-03 21:01:23 r, 16.22m,0000000027Hz,0000016949c,0000000.037s,-000.7C,00002191
2014-12-03 21:11:24 r, 16.25m,0000000026Hz,0000017327c,0000000.038s,-000.7C,00002191
2014-12-03 21:21:24 r, 16.22m,0000000027Hz,0000016859c,0000000.037s,-000.7C,00002191
2014-12-03 21:31:24 r, 16.21m,0000000027Hz,0000016717c,0000000.036s,-000.4C,00002191
2014-12-03 21:41:27 r, 16.18m,0000000029Hz,0000016292c,0000000.035s,-000.4C,00002191
2014-12-03 21:51:25 r, 16.12m,0000000030Hz,0000015404c,0000000.033s, 000.1C,00002191
2014-12-03 22:01:23 r, 16.13m,0000000029Hz,0000015597c,0000000.034s, 000.3C,00002191
2014-12-03 22:11:25 r, 16.26m,0000000026Hz,0000017444c,0000000.038s, 000.3C,00002191
2014-12-03 22:21:23 r, 16.24m,0000000027Hz,0000017262c,0000000.037s, 000.6C,00002191
2014-12-03 22:31:26 r, 16.19m,0000000028Hz,0000016432c,0000000.036s, 000.6C,00002191
2014-12-03 22:41:22 r, 16.23m,0000000027Hz,0000017077c,0000000.037s, 000.9C,00002191
2014-12-03 22:51:24 r, 16.22m,0000000027Hz,0000016888c,0000000.037s, 000.9C,00002191
2014-12-03 23:01:23 r, 16.26m,0000000027Hz,0000017635c,0000000.038s, 000.9C,00002191
2014-12-03 23:11:22 r, 16.26m,0000000026Hz,0000017556c,0000000.038s, 001.2C,00002191
2014-12-03 23:21:25 r, 16.29m,0000000026Hz,0000017960c,0000000.039s, 001.6C,00002191
2014-12-03 23:31:23 r, 16.32m,0000000025Hz,0000018618c,0000000.040s, 001.6C,00002191
2014-12-03 23:41:24 r, 16.32m,0000000024Hz,0000018660c,0000000.040s, 001.9C,00002191
2014-12-03 23:51:22 r, 16.34m,0000000025Hz,0000018859c,0000000.041s, 001.9C,00002191
